This demonstration page uses our WeatherBlox Daily Observations layout. Learn more.

Left ArrowRight Arrow

41.86663, -103.66717

Hourly Observations for August 2, 2018

Temp ( °F °C ) Dew Point ( °F °C ) Humidity (%) Winds ( mph kmh ) Pressure ( in mb ) Visibility ( mi km ) Precip ( " mm )
12:53 am 00:53 Clear 59 15 56 13.3 90 90 E 3 6 29.96 1014 10 16 0.00 0.00
1:53 am 01:53 Clear 60 15.6 56 13.3 86 86 NE 3 6 29.94 1014 10 16 0.00 0.00
2:53 am 02:53 Clear 58 14.4 56 13.3 93 93 E 6 9 29.93 1014 10 16 0.00 0.00
3:53 am 03:53 Clear 57 13.9 56 13.3 96 96 E 8 13 29.92 1013 10 16 0.00 0.00
4:53 am 04:53 Clear 57 13.9 56 13.3 96 96 E 8 13 29.91 1013 10 16 0.00 0.00
5:53 am 05:53 Sunny 57 13.9 56 13.3 96 96 E 7 11 29.91 1013 10 16 0.00 0.00
6:53 am 06:53 Sunny 60 15.6 57 13.9 90 90 WNW 3 6 29.92 1013 10 16 0.00 0.00
7:53 am 07:53 Sunny 66 18.9 57 13.9 73 73 Calm 29.91 1013 10 16 0.00 0.00
8:53 am 08:53 Sunny 70 21.1 60 15.6 71 71 VRB 3 6 29.91 1013 10 16 0.00 0.00
9:53 am 09:53 Sunny 78 25.6 58 14.4 50 50 Calm 29.89 1012 10 16 0.00 0.00
10:53 am 10:53 Sunny 82 27.8 58 14.4 44 44 Calm 29.88 1012 10 16 0.00 0.00
11:53 am 11:53 Sunny 85 29.4 63 17.2 48 48 NW 6 9 29.86 1011 10 16 0.00 0.00
12:53 pm 12:53 Sunny 88 31.1 59 15 38 38 Calm 29.84 1010 10 16 0.00 0.00
1:53 pm 13:53 Sunny 90 32.2 59 15 35 35 ESE 3 6 29.82 1010 10 16 0.00 0.00
2:53 pm 14:53 Sunny 91 32.8 61 16.1 37 37 E 5 7 29.81 1010 10 16 0.00 0.00
3:53 pm 15:53 Sunny 92 33.3 59 15 33 33 NE 5 7 29.80 1009 10 16 0.00 0.00
4:53 pm 16:53 Sunny 92 33.3 62 16.7 37 37 E 5 7 29.79 1009 10 16 0.00 0.00
5:53 pm 17:53 Sunny 91 32.8 60 15.6 35 35 ESE 5 7 29.78 1009 10 16 0.00 0.00
6:53 pm 18:53 Sunny 85 29.4 70 21.1 61 61 ENE 3 6 29.78 1008 10 16 0.00 0.00
7:53 pm 19:53 Sunny 78 25.6 65 18.3 64 64 ENE 6 9 29.78 1009 10 16 0.00 0.00
8:53 pm 20:53 Clear 77 25 66 18.9 69 69 ESE 3 6 29.79 1009 10 16 0.00 0.00
9:53 pm 21:53 Clear 72 22.2 66 18.9 82 82 Calm 29.80 1009 10 16 0.00 0.00
10:53 pm 22:53 Clear 69 20.6 63 17.2 81 81 E 9 15 29.79 1009 10 16 0.00 0.00
11:53 pm 23:53 Clear 71 21.7 60 15.6 68 68 NE 5 7 29.79 1009 10 16 0.00 0.00

Powered by AerisWeather